Lexington Weather

Lexington, Massachusetts, USA

29°F
4/1/2020 4:38am 
  • Lexington Conditions: Clear
  • Temperature: 29.3°F / -1.5°C 
  • Dew Point: 27.5°FIncreased 0.2°Fsince last hour.
  • Relative Humidity: 93%Increased 1.0% since last hour.
  • Wind: Calm, 10-min avg: Calm, gust: 1 mph
  • Barometer: 29.87 in Steady
  • Visibility: 10 miles
  • Snow Today: 0.0 in
  •   

Regional Weather Roundup
for Boston / Norton, MA

        
000
ASUS41 KBOX 300705
RWRBOX

REGIONAL WEATHER ROUNDUP
NATIONAL WEATHER SERVICE BOSTON/NORTON MA
300 AM EDT MON MAR 30 2020

NOTE:  "FAIR" INDICATES FEW OR NO CLOUDS BELOW 12,000 FEET WITH NO 
SIGNIFICANT WEATHER AND/OR OBSTRUCTIONS TO VISIBILITY.

MAZALL-300800-
EASTERN MASSACHUSETTS
  
CITY           SKY/WX    TMP DP  RH WIND       PRES   REMARKS
BOSTON         DRIZZLE   40  38  93 N17       29.96S FOG     WCI  31  
BEVERLY        CLOUDY    41  38  89 NE12G21   29.96F FOG              
LAWRENCE       CLOUDY    39  38  96 NE13      30.00S FOG     WCI  31  
BEDFORD        LGT RAIN  41  38  89 N9        29.97S FOG              
BLUE HILL        N/A     38  38 100 NE17G31   29.91S WCI  28          
NORWOOD        CLOUDY    42  38  85 N8        29.96S FOG              
MARSHFIELD     CLOUDY    43  43 100 NE9G18    29.92S FOG              
PLYMOUTH       LGT RAIN  41  40  96 NE17G24     N/A  FOG              
TAUNTON        CLOUDY    41  39  93 N8G16     29.91S FOG              
NEW BEDFORD    CLOUDY    40  40 100 N10G18    29.88S FOG              
$$

MAZALL-300800-
CAPE COD AND THE ISLANDS
  
CITY           SKY/WX    TMP DP  RH WIND       PRES   REMARKS
FALMOUTH       CLOUDY    41  41 100 N12G20    29.86S FOG              
HYANNIS        CLOUDY    45  43  93 NE8       29.84R FOG              
CHATHAM        CLOUDY    44  42  93 NE12G20   29.85R FOG              
PROVINCETOWN   CLOUDY    42  42 100 NE17G24   29.89F FOG              
NANTUCKET      CLOUDY    45  44  97 N16       29.80R FOG              
MARTHAS VNYRD  CLOUDY    44  43  96 N12       29.85R                  
$$
 
MAZALL-300800-
CENTRAL AND WESTERN MASSACHUSETTS
  
CITY           SKY/WX    TMP DP  RH WIND       PRES   REMARKS
WORCESTER      FOG       36  34  92 NE14G22   29.93F VSB 1   WCI  27  
FITCHBURG      CLOUDY    38  35  89 N7        30.00F FOG              
ORANGE         NOT AVBL                                               
SPRINGFIELD    CLOUDY    39  37  94 NE12      29.96R WCI  32          
WESTFIELD      CLOUDY    38  35  89 N12       29.98R WCI  30          
NORTH ADAMS    CLOUDY    39  34  82 E10       29.96F                  
PITTSFIELD     CLOUDY    37  34  89 VRB3      29.94S FOG              
$$
 
RIZALL-300800-
RHODE ISLAND
  
CITY           SKY/WX    TMP DP  RH WIND       PRES   REMARKS
PROVIDENCE     CLOUDY    41  40  96 N16G24    29.92S                  
NEWPORT        CLOUDY    42  39  89 N16G23    29.89R FOG              
BLOCK ISLAND   CLOUDY    41  39  93 N18G24    29.89S                  
SMITHFIELD     LGT RAIN  39  39 100 N16       29.94R FOG     WCI  30  
WESTERLY       CLOUDY    44  38  79 N8        29.91R                  
$$
 
CTZALL-300800-
CONNECTICUT
  
CITY           SKY/WX    TMP DP  RH WIND       PRES   REMARKS
BRADLEY INTL   CLOUDY    39  36  89 N12       29.97R WCI  32          
HARTFORD       CLOUDY    41  37  86 N9        29.96R                  
BRIDGEPORT     CLOUDY    43  38  82 N16       29.93R                  
DANBURY        CLOUDY    41  38  89 N9        29.95R                  
GROTON         CLOUDY    40  40 100 N13       29.91R                  
NEW HAVEN      CLOUDY    42  39  89 N18       29.92R                  
CHESTER        CLOUDY    41  39  93 N13       29.92R                  
MERIDEN        CLOUDY    40  37  89 N15G23    29.94R WCI  32          
WILLIMANTIC    CLOUDY    40  38  93 NE13      29.93R                  
OXFORD         CLOUDY    38  37  97 N15       29.93R WCI  29          
$$

MEZ002-015-021-024-NHZ003-005-008-011-012-014-VTZ005-008-300800-
NORTHERN NEW ENGLAND
  
CITY           SKY/WX    TMP DP  RH WIND       PRES   REMARKS
PORTLAND ME    LGT RAIN  38  34  85 NE8       30.06S FOG              
BANGOR ME      FLURRIES  33  31  92 E8        30.13F WCI  26          
CONCORD NH     CLOUDY    35  33  92 NW6       30.04S FOG     WCI  30  
MANCHESTER NH  CLOUDY    38  36  92 N7        30.00F FOG              
NASHUA NH      LGT RAIN  38  38 100 N6        30.01F FOG              
PORTSMOUTH NH  DRIZZLE   39  37  94 NE12      30.00S FOG     WCI  31  
JAFFREY NH     CLOUDY    35  34  96 N6        29.98S FOG     WCI  30  
KEENE NH       MIX PCPN  36  35  96 N6        30.03R WCI  31          
BURLINGTON VT  FAIR      39  35  86 S8        29.90F                  
MT. WASHINGTON FOG       25  25 100 S21G26      N/A  VSB 1/16WCI  10  
$$

NYZ052-076-300800-
EASTERN NEW YORK
  
CITY           SKY/WX    TMP DP  RH WIND       PRES   REMARKS
ALBANY         CLOUDY    44  39  82 S5        29.92F                  
NEW YORK CITY  CLOUDY    47  43  86 NE10      29.92R                  
$$
 
ANZALL-300800-
MARINE OBSERVATIONS
  
STATION/POSITION TIME  TEMP    WIND        PRES    VSBY  WAVE
                       AIR SEA DIR/SP/G                  HT/PER
                 (UTC) (F)     (DEG/KT/KT) (MB)    (MI)  (FT/S)
BOSTON BUOY      0650   42 42   50/ 19/ 23 1012.6F         7/ 8
BUZZARDS BAY     0600           10/ 21/ 22 1012.1R
NANTUCKET SOUND  0640                        N/A           2/ 3
MASS BAY-STELLWA 0604   41 42   80/ 21/ 25 1012.1S  1 7/8  8/ 8
ISLE OF SHOALS   0600   40      50/ 25/ 28 1015.0R
S OF BLOCK IS    0630      44                N/A           8/ 9
$$

......................KEY.........................
  SKY/WX - SKY CONDITION/PRESENT WEATHER
  TMP    - TEMPERATURE IN FAHRENHEIT
  DWPT   - DEWPOINT IN FAHRENHEIT
  RH     - RELATIVE HUMIDITY IN PERCENT
  WIND   - DIRECTION AND SPEED IN MPH
  PRES   - MEAN SEA LEVEL PRESSURE IN INCHES OF HG
  WCI    - WIND CHILL INDEX
  VSB    - VISIBILITY IN MILES
  HX     - HEAT INDEX
  TC     - TEMPERATURE IN CELSIUS
  VRB    - VARIABLE WIND DIRECTION
  N/A    - NOT AVAILABLE
  
      

Other recent Regional Weather Roundups

Wed Apr 1, 4:05am

Wed Apr 1, 3:04am

Wed Apr 1, 2:04am

Wed Apr 1, 1:04am

Wed Apr 1, 12:04am

Tue Mar 31, 11:04pm

Tue Mar 31, 10:04pm

Tue Mar 31, 9:04pm

Tue Mar 31, 8:04pm

Tue Mar 31, 7:04pm

Tue Mar 31, 6:04pm

Tue Mar 31, 4:04pm

Tue Mar 31, 3:04pm

Tue Mar 31, 2:04pm

Tue Mar 31, 1:04pm

Tue Mar 31, 12:05pm

Tue Mar 31, 11:04am

Tue Mar 31, 10:05am

Tue Mar 31, 9:04am

Tue Mar 31, 8:04am

Tue Mar 31, 7:05am

Tue Mar 31, 6:04am

Tue Mar 31, 5:04am

Tue Mar 31, 4:04am

Tue Mar 31, 3:04am

Tue Mar 31, 2:04am

Tue Mar 31, 1:04am

Tue Mar 31, 12:04am

Mon Mar 30, 11:04pm

Mon Mar 30, 10:04pm

Mon Mar 30, 9:05pm

Mon Mar 30, 8:04pm

Mon Mar 30, 7:04pm

Mon Mar 30, 6:04pm

Mon Mar 30, 5:05pm

Mon Mar 30, 4:04pm

Mon Mar 30, 3:04pm

Mon Mar 30, 2:04pm

Mon Mar 30, 1:04pm

Mon Mar 30, 12:04pm

Mon Mar 30, 11:04am

Mon Mar 30, 10:04am

Mon Mar 30, 9:04am

Mon Mar 30, 8:04am

Mon Mar 30, 7:04am

Mon Mar 30, 6:04am

Mon Mar 30, 5:04am

Mon Mar 30, 4:04am

Mon Mar 30, 2:04am

Mon Mar 30, 1:04am

Mon Mar 30, 12:04am

Sun Mar 29, 11:04pm

Sun Mar 29, 10:05pm

Sun Mar 29, 9:04pm

Sun Mar 29, 8:04pm

Sun Mar 29, 7:04pm

Sun Mar 29, 6:04pm

Sun Mar 29, 5:05pm

Sun Mar 29, 4:04pm

Sun Mar 29, 3:04pm

Sun Mar 29, 2:04pm

Sun Mar 29, 1:05pm

Sun Mar 29, 12:04pm

Sun Mar 29, 11:04am

Sun Mar 29, 10:04am

Sun Mar 29, 9:04am

Sun Mar 29, 8:04am

Sun Mar 29, 7:04am

Sun Mar 29, 6:04am

Sun Mar 29, 5:04am

Meta data:

ID: abea2f32-b0ca-41bc-82db-24c4b0a9c7e4
Link: https://api.weather.gov/products/abea2f32-b0ca-41bc-82db-24c4b0a9c7e4